Showing default

BD-21, 41315

Orbit data source: Space-Track

BD-21, 41315 is a payload satellite owned by CNSA (CN) in MEO that was launched on Mon, 01 Feb 2016 UTC via a CHANG ZHENG 3C/YZ-1 launch vehicle from the Xichang Space Center, China (XSC). Payload-class satellites include a variety of spacecraft equipped with specific instruments for various scientific and technological missions. These include communications satellites like Starlink; space stations such as the ISS; scientific satellites like the Hubble; Earth observation satellites from companies like Planet Labs, Umbra, and HawkEye 360; GPS; miniature CubeSats for education and research; and military/defense satellites.

Loading next visibility...
Identifier
41315, 2016-006A
Orbit
MEO
Country
Flag of CNCN / PRC
Related business
Manufacturer
SECM
Mission
Non-operational Defense Navigation
Bus & Motor
BD-3M2, Unknown motor
Mass
1,014 kg wet, ~850 kg dry
Launch date (UTC)
2016-02-01 (10 years ago)
Launch vehicle
CHANG ZHENG 3C/YZ-1
Launch site
Xichang Space Center, China (XSC)
Object type
Payload
Rocket body
Debris
Shape & HBR
Box + 2 Pan, 5.0 m
Radar Cross Section
8.984 m², Large (>1 m²)

Expand to show TLE details & history
Last TLE update: 4 days ago

TLE from 4 days ago
0 BD-21
1 41315U 16006A   26169.10609676 -.00000054  00000-0  00000+0 0  9995
2 41315  56.7067  63.6088 0003919 311.9784  48.0296  1.86230724 70619
Epoch: 2026-06-18T02:32Z
TLE epoch observation values (Epoch: 2026-06-18T02:32:46.760Z)
Latitude
0.00001°
Longitude
119.07811°
Altitude
21,521.099 km
Speed
3.78 km/s
True Right ascension
04h 14m 30s
True Declination
0° 00' 00"
Sunlit
Object was in daylight at epoch
Visualization orbit readout
Latitude
Unknown
Longitude
Unknown
Altitude
Unknown
Speed
Unknown
Apparent Right ascension
Unknown
Apparent Declination
Unknown
Sunlit
N/A
Visualization observer readout
Local Sidereal Time
21:24:57
Azimuth
Unknown
Elevation
Unknown
Doppler factor
Unknown
Orbital elements
Apogee altitude
21,538.957 km
Perigee altitude
21,517.084 km
Semi-major axis
27,906.157 km
Eccentricity
0.00039
Inclination
56.7067°
RAAN
63.6088°
Arg. of periapsis
311.9784°
True anomaly
48.063°
Mean anomaly
48.0296°
Eccentric anomaly
48.0463°
Mean motion
0.46558 °/min
Orbital period
773.23 mins
BSTAR
0
Loading maneuver chart data...
Computing Atmospheric mass density...
Loading historical data...
Loading historical data...
Loading historical data...
Loading historical data...
Loading historical data...
Loading historical data...
Loading historical data...
Other satellites on launch #6 in the year 2016 (2016-02-01 UTC)

Documentation

Showing up to 5 results
|